Location: Ailingen
(47.6833°N, 9.5000°E)
Time: 12:15:26
(UTC+00:00)

Cosmos 2082 Rocket - Pass Details

Date: 18 November 2025
Orbit: 834 x 851 km, 71.0° (Epoch: 11 December)

Event Time Altitude Azimuth Distance (km) Brightness Sun altitude
Rises 17:31:38 0° 331° (NNW) 3,392 5.6 -18.2°
Reaches altitude 10° 17:34:05 10° 329° (NNW) 2,453 4.9 -18.6°
Maximum altitude 17:39:40 72° 246° (WSW) 879 2.4 -19.6°
Drops below altitude 10° 17:45:14 10° 163° (SSE) 2,441 4.5 -20.5°
Sets 17:47:41 0° 162° (SSE) 3,373 5.2 -20.9°
